Weather History for KCLT - January, 2014

Change the Weather History Date:

Tuesday, January 14, 2014

  Actual Average Record
Temperature  
Mean Temperature 48 °F 40 °F  
Max Temperature 60 °F 50 °F 77 °F (1907)
Min Temperature 36 °F 29 °F 7 °F (1912)
Degree Days  
Heating Degree Days 17 25  
Month to date heating degree days 388 350  
Since 1 July heating degree days 1615 1687  
Cooling Degree Days 0 0  
Month to date cooling degree days 0 0  
Year to date cooling degree days 0 0  
Growing Degree Days 2 (Base 50)    
Moisture  
Dew Point 43 °F    
Average Humidity 69    
Maximum Humidity 93    
Minimum Humidity 44    
Precipitation  
Precipitation 0.08 in 0.11 in 1.45 in (1961)
Month to date precipitation 2.80 1.58  
Year to date precipitation 2.80 1.58  
Snow  
Snow 0.00 in 0.10 in 1.90 in (1982)
Month to date snowfall 0.0 0.9  
Since 1 July snowfall T 1.3  
Snow Depth 0.00 in    
Sea Level Pressure  
Sea Level Pressure 29.87 in    
Wind  
Wind Speed 2 mph (SW)    
Max Wind Speed 10 mph    
Max Gust Speed 16 mph    
Visibility 6 miles    
Events Rain    
T = Trace of Precipitation, MM = Missing Value Source: NWS Daily Summary

Daily Weather History Graph

Daily Weather History Graph

Search for Another Location

Airport or City:

Trip Planner

Search our weather history database for the weather conditions in past years. The results will help you decide how hot, cold, wet, or windy it might be!

Date:

Astronomy

Jan. 14, 2014 Rise Set
Actual Time 7:32 AM EST 5:34 PM EST
Civil Twilight 7:04 AM EST 6:01 PM EST
Nautical Twilight 6:33 AM EST 6:32 PM EST
Astronomical Twilight 6:02 AM EST 7:03 PM EST
Moon 4:36 PM EST (1/14) 6:06 AM EST (1/14)
Length of Visible Light 10h 57m
Length of Day
10h 01m
Waxing Gibbous, 98% of the Moon is Illuminated
Jan 14
Waxing Gibbous
Jan 15
Full
Jan 24
Last Quarter
Jan 30
New
Feb 6
First Quarter

Hourly Weather History & Observations

Time (EST) Temp. Windchill Dew Point Humidity Pressure Visibility Wind Dir Wind Speed Gust Speed Precip Events Conditions
12:52 AM 46.0 °F - 45.0 °F 96% 29.92 in 10.0 mi Calm Calm - N/A   Overcast
1:52 AM 46.0 °F - 45.0 °F 96% 29.89 in 7.0 mi Calm Calm - 0.00 in Rain Light Rain
2:12 AM 46.4 °F - 44.6 °F 93% 29.88 in 10.0 mi Calm Calm - 0.00 in   Overcast
2:36 AM 46.4 °F - 44.6 °F 93% 29.89 in 5.0 mi Calm Calm - 0.00 in Rain Light Rain
2:49 AM 46.4 °F - 44.6 °F 93% 29.89 in 5.0 mi Calm Calm - 0.01 in Rain Light Rain
2:52 AM 46.0 °F - 45.0 °F 96% 29.89 in 5.0 mi Calm Calm - 0.01 in Rain Light Rain
3:14 AM 46.4 °F - 44.6 °F 93% 29.87 in 4.0 mi Calm Calm - 0.00 in Rain Light Rain
3:35 AM 46.4 °F - 44.6 °F 93% 29.87 in 3.0 mi Calm Calm - 0.00 in Rain Light Rain
3:52 AM 46.0 °F - 45.0 °F 96% 29.86 in 3.0 mi Calm Calm - 0.00 in   Light Drizzle
4:37 AM 46.4 °F - 46.4 °F 100% 29.84 in 5.0 mi Calm Calm - 0.01 in   Light Drizzle
4:52 AM 46.0 °F 44.8 °F 45.0 °F 96% 29.83 in 5.0 mi SE 3.5 mph - 0.01 in   Light Drizzle
5:09 AM 46.4 °F - 44.6 °F 93% 29.83 in 8.0 mi Calm Calm - 0.00 in   Overcast
5:52 AM 46.0 °F - 45.0 °F 96% 29.82 in 3.0 mi Calm Calm - 0.00 in   Overcast
6:20 AM 46.4 °F - 46.4 °F 100% 29.81 in 2.5 mi Calm Calm - 0.00 in   Light Drizzle
6:52 AM 46.0 °F 43.9 °F 46.0 °F 100% 29.81 in 2.0 mi SSE 4.6 mph - 0.00 in   Light Drizzle
6:59 AM 46.4 °F 43.5 °F 46.4 °F 100% 29.80 in 1.0 mi SE 5.8 mph - 0.01 in   Light Drizzle
7:18 AM 46.4 °F - 46.4 °F 100% 29.81 in 2.0 mi Calm Calm - 0.01 in Rain Light Rain
7:52 AM 46.0 °F 44.8 °F 46.0 °F 100% 29.82 in 2.0 mi South 3.5 mph - 0.01 in   Overcast
8:13 AM 46.4 °F 43.5 °F 46.4 °F 100% 29.82 in 1.8 mi South 5.8 mph - 0.00 in Rain Light Rain
8:52 AM 46.9 °F - 46.0 °F 97% 29.81 in 2.0 mi South 4.6 mph - 0.02 in Rain Light Rain
9:52 AM 46.9 °F - 46.9 °F 100% 29.85 in 2.0 mi Calm Calm - 0.01 in   Overcast
10:27 AM 48.2 °F - 46.4 °F 93% 29.84 in 3.0 mi WNW 3.5 mph - 0.02 in   Overcast
10:39 AM 48.2 °F - 46.4 °F 93% 29.84 in 3.0 mi WNW 4.6 mph - 0.02 in   Overcast
10:52 AM 48.0 °F - 46.9 °F 96% 29.86 in 8.0 mi Calm Calm - 0.02 in   Overcast
11:52 AM 48.9 °F - 46.9 °F 93% 29.85 in 10.0 mi Calm Calm - 0.00 in Rain Light Rain
12:52 PM 53.1 °F - 48.0 °F 83% 29.86 in 10.0 mi West 5.8 mph - 0.00 in   Mostly Cloudy
1:52 PM 55.0 °F - 45.0 °F 69% 29.84 in 10.0 mi West 4.6 mph - N/A   Scattered Clouds
2:52 PM 59.0 °F - 44.1 °F 58% 29.85 in 10.0 mi NW 8.1 mph - N/A   Scattered Clouds
3:52 PM 59.0 °F - 39.9 °F 49% 29.87 in 10.0 mi Calm Calm - N/A   Partly Cloudy
4:52 PM 59.0 °F - 37.0 °F 44% 29.88 in 10.0 mi West 3.5 mph - N/A   Partly Cloudy
5:52 PM 53.1 °F - 36.0 °F 52% 29.91 in 10.0 mi SW 4.6 mph - N/A   Clear
6:52 PM 52.0 °F - 30.9 °F 45% 29.92 in 10.0 mi WSW 4.6 mph - N/A   Clear
7:52 PM 46.9 °F - 32.0 °F 56% 29.95 in 10.0 mi West 4.6 mph - N/A   Clear
8:52 PM 45.0 °F 42.6 °F 32.0 °F 60% 29.96 in 10.0 mi ESE 4.6 mph - N/A   Partly Cloudy
9:52 PM 43.0 °F - 32.0 °F 65% 29.97 in 10.0 mi Calm Calm - N/A   Partly Cloudy
10:52 PM 43.0 °F - 33.1 °F 68% 29.96 in 10.0 mi Calm Calm - N/A   Clear
11:52 PM 41.0 °F - 34.0 °F 76% 29.96 in 10.0 mi Calm Calm - N/A   Clear